FW4778 Weather Reports


time (UTC)temp
F
wind
direction
speed
knots
gust
knots
rain 1hr
in
rain 24hr
in
rain mn
in
humidity
%
barometer
mb
20260505181248 53 27 2.6 5.2 0.00 6.26 0.07 92 1009.1
20260505180253 54 57 0.9 5.2 0.00 6.26 0.07 93 1009.1
20260505175233 54 59 0.9 3.5 0.00 6.26 0.07 93 1009.1
20260505174233 54 71 1.7 5.2 0.00 6.26 0.07 93 1009.1
20260505173301 54 26 0.9 5.2 0.00 6.26 0.07 93 1009.0
20260505172250 54 71 1.7 4.3 0.00 6.26 0.07 94 1009.1
20260505171234 54 30 2.6 9.6 0.00 6.26 0.07 93 1009.1
20260505170244 54 27 4.3 7.8 0.00 6.26 0.07 93 1009.2
20260505165243 54 29 1.7 7.8 0.00 6.26 0.07 94 1009.1
20260505164237 54 15 2.6 7.0 0.00 6.26 0.07 94 1009.2
20260505163307 54 5 1.7 7.0 0.00 6.26 0.07 94 1009.2
20260505162307 54 41 3.5 10.4 0.00 6.26 0.07 95 1009.2
20260505161238 54 28 3.5 9.6 0.00 6.26 0.07 95 1009.2
20260505160249 54 38 5.2 9.6 0.00 6.26 0.07 95 1009.2
20260505153231 54 53 1.7 5.2 0.00 6.26 0.07 96 1009.4
20260505152244 54 26 1.7 7.0 0.00 6.26 0.07 96 1009.5
20260505151226 54 77 0.9 5.2 0.00 6.26 0.07 97 1009.6
20260505150252 54 48 2.6 6.1 0.00 6.26 0.07 97 1009.6
20260505140227 54 44 0.9 5.2 0.00 6.26 0.07 98 1009.9
20260505130230 53 42 2.6 5.2 0.00 6.26 0.07 98 1010.3
20260505124233 52 27 1.7 7.8 0.00 6.26 0.07 98 1010.4
20260505123234 53 57 2.6 6.1 0.00 6.26 0.07 98 1010.4
20260505122255 52 19 2.6 8.7 0.00 6.26 0.07 98 1010.4
20260505121307 52 5 1.7 7.8 0.00 6.26 0.07 98 1010.5
20260505120227 52 355 3.5 7.8 0.00 6.26 0.07 98 1010.4
20260505115315 52 34 1.7 7.8 0.00 6.26 0.07 98 1010.5
20260505114231 52 40 2.6 7.8 0.00 6.26 0.07 98 1010.6
20260505113230 52 16 4.3 9.6 0.00 6.26 0.07 98 1010.6
20260505112306 52 360 3.5 7.8 0.00 6.26 0.07 98 1010.8
20260505111229 52 35 2.6 8.7 0.00 6.26 0.07 98 1010.8
20260505110246 52 11 3.5 7.8 0.00 6.26 0.07 98 1010.8
20260505101258 52 42 1.7 9.6 0.00 6.30 0.07 98 1010.9
20260505100247 52 44 3.5 10.4 0.00 6.30 0.07 99 1010.8
20260505095243 52 90 2.6 9.6 0.00 6.30 0.07 98 1010.7
20260505094252 52 42 4.3 11.3 0.00 6.30 0.07 98 1010.6
20260505093231 52 67 6.1 10.4 0.00 6.30 0.07 98 1010.7
20260505092256 52 5 3.5 10.4 0.00 6.30 0.07 98 1010.9
20260505091247 52 41 2.6 9.6 0.00 6.30 0.07 99 1010.9
20260505090244 52 347 3.5 9.6 0.00 6.30 0.07 98 1010.9
20260505085232 52 28 6.1 9.6 0.00 6.30 0.07 98 1010.9
20260505084241 52 5 6.1 9.6 0.00 6.30 0.07 98 1010.9
20260505083240 52 30 5.2 9.6 0.00 6.30 0.07 99 1010.9
20260505082252 52 12 4.3 8.7 0.00 6.30 0.07 98 1011.0
20260505081243 52 30 4.3 8.7 0.00 6.30 0.07 98 1010.9
20260505080245 52 342 6.1 9.6 0.00 6.30 0.07 98 1010.9
20260505075238 52 346 4.3 8.7 0.00 6.30 0.07 98 1011.0
20260505074250 52 25 5.2 12.2 0.00 6.30 0.07 98 1011.1
20260505073300 52 327 5.2 8.7 0.00 6.30 0.07 98 1011.1
20260505072251 52 321 5.2 9.6 0.00 6.30 0.07 98 1011.1
20260505071232 52 5 4.3 9.6 0.00 6.30 0.07 98 1011.0
20260505070241 52 39 3.5 8.7 0.00 6.30 0.07 98 1011.0
20260505064240 52 360 4.3 8.7 0.00 6.30 0.07 98 1011.0
20260505063257 52 346 5.2 8.7 0.00 6.30 0.07 98 1011.1
20260505062258 52 5 3.5 10.4 0.00 6.30 0.07 98 1011.2
20260505061238 52 17 3.5 8.7 0.00 6.30 0.02 98 1011.2
20260505060305 52 351 3.5 9.6 0.00 6.30 0.02 98 1011.3
20260505055244 52 17 6.1 10.4 0.00 6.30 0.02 98 1011.3
20260505054239 52 342 4.3 7.8 0.00 6.30 0.02 98 1011.3
20260505053241 52 355 5.2 8.7 0.00 6.30 0.02 98 1011.2
20260505052254 52 57 3.5 9.6 0.00 6.30 0.02 98 1011.1
20260505051237 52 39 5.2 10.4 0.00 6.30 0.02 98 1011.1
20260505050245 52 5 4.3 9.6 0.00 6.30 0.02 98 1011.1
20260505041226 53 344 4.3 9.6 0.04 6.30 0.02 98 1011.3
20260505040256 53 355 5.2 10.4 0.04 6.30 0.02 98 1011.2
20260505035251 53 325 6.1 11.3 0.08 6.30 0.02 98 1011.1
20260505034230 53 37 3.5 9.6 0.08 6.30 0.02 98 1011.1
20260505033240 53 360 3.5 7.8 0.08 6.30 0.02 98 1011.1
20260505032244 53 38 4.3 8.7 0.08 6.30 0.02 98 1011.2
20260505031228 53 348 2.6 8.7 0.04 6.26 0.02 98 1011.2
20260505030236 53 338 5.2 10.4 0.04 6.26 0.02 98 1011.2
20260505025235 54 17 4.3 9.6 0.00 6.22 0.01 98 1011.2
20260505024302 54 355 4.3 7.0 0.00 6.22 0.01 98 1011.2
20260505023259 54 24 3.5 7.8 0.00 6.22 0.01 98 1011.3
20260505022320 54 55 3.5 7.8 0.00 6.22 0.01 98 1011.3
20260505021250 54 27 3.5 9.6 0.00 6.22 0.01 98 1011.3
20260505020249 54 10 4.3 9.6 0.00 6.22 0.01 98 1011.3
20260505015229 55 44 6.1 10.4 0.00 6.22 0.01 98 1011.2
20260505014229 55 11 4.3 9.6 0.00 6.22 0.01 98 1011.3
20260505013254 55 46 5.2 9.6 0.00 6.22 0.01 98 1011.3
20260505012245 55 5 5.2 10.4 0.00 6.22 0.01 98 1011.2
20260505011228 55 336 5.2 8.7 0.00 6.22 0.01 98 1011.2
20260505010240 55 35 3.5 9.6 0.00 6.22 0.01 98 1011.4
20260505005236 55 38 4.3 8.7 0.00 6.22 0.01 98 1011.4
20260505004255 55 22 3.5 8.7 0.00 6.22 0.01 98 1011.4
20260505003243 55 351 6.1 10.4 0.00 6.22 0.01 98 1011.5
20260505002325 56 360 4.3 11.3 0.00 6.22 0.01 98 1011.5
20260505001226 56 355 4.3 6.1 0.00 6.22 0.01 98 1011.6
20260505000243 56 13 3.5 8.7 0.00 6.22 0.01 98 1011.7
20260504235249 56 348 3.5 7.0 0.00 6.22 0.01 98 1011.7
20260504234231 56 360 4.3 8.7 0.00 6.22 0.01 98 1011.7
20260504233225 56 24 5.2 7.8 0.00 6.22 0.01 98 1011.7
20260504232307 56 22 4.3 8.7 0.00 6.22 0.01 97 1011.7
20260504231229 57 18 5.2 9.6 0.00 6.22 0.01 98 1011.8
20260504230227 57 5 4.3 9.6 0.04 6.22 0.01 97 1011.8
20260504225229 57 360 5.2 10.4 0.04 6.22 0.01 97 1011.9
20260504224230 57 5 3.5 9.6 0.28 6.22 0.01 98 1012.0
20260504223240 57 300 2.6 5.2 0.55 6.22 0.01 97 1012.0
20260504222253 57 329 2.6 5.2 0.98 6.22 0.01 98 1012.1
20260504221241 57 303 1.7 5.2 1.50 6.22 0.01 97 1012.2
20260504220235 57 315 2.6 5.2 2.72 6.18 0.00 97 1012.3
20260504215233 57 309 1.7 5.2 3.07 6.18 1.24 97 1012.3
20260504214302 57 319 2.6 7.8 3.31 5.91 1.18 97 1012.4
20260504213238 57 251 0.9 2.6 3.46 5.63 1.13 97 1012.5
20260504212259 57 157 1.7 2.6 3.31 5.20 1.04 97 1012.7
20260504211243 58 218 1.7 3.5 3.90 4.69 0.94 96 1012.7
20260504210242 58 169 0.0 2.6 2.72 3.43 0.69 96 1012.7
20260504205251 58 233 1.7 4.3 2.40 3.11 0.62 96 1012.7
20260504204231 59 222 0.9 5.2 1.89 2.56 0.51 96 1012.6
20260504203231 59 247 0.9 4.3 1.50 2.17 0.43 96 1012.7
20260504202312 59 209 1.7 3.5 1.26 1.85 0.37 96 1012.7
20260504201232 59 227 0.0 2.6 0.20 0.75 0.15 95 1012.7
20260504200232 59 227 0.9 2.6 0.16 0.71 0.14 95 1012.7
20260504195239 59 230 0.0 1.7 0.20 0.71 0.14 94 1012.7
20260504194237 59 230 0.0 2.6 0.24 0.67 0.13 94 1012.5
20260504193235 59 235 0.0 1.7 0.24 0.67 0.13 94 1012.5
20260504192251 59 264 0.9 2.6 0.16 0.59 0.12 94 1012.4
20260504191357 59 250 0.0 1.7 0.31 0.55 0.11 93 1012.4
20260504190252 59 310 0.9 1.7 0.51 0.55 0.11 93 1012.5
20260504185228 59 310 0.0 3.5 0.47 0.51 0.10 92 1012.4
20260504184227 59 263 0.9 4.3 0.39 0.43 0.09 92 1012.4
20260504183256 60 306 1.7 4.3 0.39 0.43 0.09 92 1012.2
20260504182247 60 146 1.7 2.6 0.39 0.43 0.09 91 1012.1